Ludington, MI

7:09 AM EDT on October 14, 2019 (GMT -0400)
Mason County

Weather History for KLDM - August, 2019

Change the Weather History Date:

Saturday, August 31, 2019

  Actual Average Record
Temperature  
Mean Temperature 56 °F -  
Max Temperature 70 °F 77 °F 88 °F (1953)
Min Temperature 41 °F 55 °F 41 °F (1976)
Degree Days  
Heating Degree Days 10    
Growing Degree Days 6 (Base 50)    
Moisture  
Dew Point 48 °F    
Average Humidity 74    
Maximum Humidity 97    
Minimum Humidity 39    
Precipitation  
Precipitation 0.00 in - - ()
Sea Level Pressure  
Sea Level Pressure 30.30 in    
Wind  
Wind Speed 2 mph (ESE)    
Max Wind Speed 9 mph    
Max Gust Speed -    
Visibility 9 miles    
Events      
Averages and records for this station are not official NWS values.
T = Trace of Precipitation, MM = Missing Value Source: NWS Daily Summary

Daily Weather History Graph

Daily Weather History Graph

Search for Another Location

Airport or City:

Astronomy

Aug. 31, 2019 Rise Set
Actual Time 7:07 AM EDT 8:23 PM EDT
Civil Twilight 6:37 AM EDT 8:53 PM EDT
Nautical Twilight 6:01 AM EDT 9:29 PM EDT
Astronomical Twilight 5:23 AM EDT 10:06 PM EDT
Moon 8:23 AM EDT (8/31) 9:33 PM EDT (8/31)
Length of Visible Light 14h 15m
Length of Day
13h 16m
New Moon, 2% of the Moon is Illuminated
Aug 31
New Moon
Sep 5
First Quarter
Sep 14
Full
Sep 21
Last Quarter
Sep 28
New

Hourly Weather History & Observations

Time (EDT) Temp. Windchill Dew Point Humidity Pressure Visibility Wind Dir Wind Speed Gust Speed Precip Events Conditions
12:15 AM 48.0 °F - 46.9 °F 96% 30.24 in 10.0 mi Calm Calm - N/A   Clear
12:35 AM 47.1 °F - 46.0 °F 96% 30.24 in 10.0 mi Calm Calm - N/A   Clear
12:58 AM 47.1 °F - 45.9 °F 95% 30.25 in 5.0 mi Calm Calm - N/A   Clear
1:16 AM 47.3 °F - 46.0 °F 95% 30.25 in 10.0 mi Calm Calm - N/A   Clear
1:35 AM 48.0 °F - 46.8 °F 95% 30.26 in 7.0 mi Calm Calm - N/A   Clear
1:36 AM 48.0 °F - 46.8 °F 95% 30.26 in 7.0 mi Calm Calm - N/A   Clear
1:55 AM 46.2 °F 45.0 °F 45.0 °F 95% 30.27 in 2.5 mi East 3.5 mph - N/A   Clear
2:19 AM 45.5 °F - 44.4 °F 96% 30.27 in 2.5 mi Calm Calm - N/A   Clear
2:37 AM 46.0 °F - 45.0 °F 96% 30.27 in 10.0 mi Calm Calm - N/A   Clear
2:55 AM 45.0 °F - 43.9 °F 96% 30.27 in 3.0 mi Calm Calm - N/A   Clear
2:56 AM 45.0 °F - 43.9 °F 96% 30.27 in 3.0 mi Calm Calm - N/A   Clear
3:15 AM 45.3 °F - 44.1 °F 95% 30.27 in 7.0 mi Calm Calm - N/A   Clear
3:16 AM 45.1 °F - 44.1 °F 96% 30.27 in 7.0 mi Calm Calm - N/A   Clear
3:35 AM 45.9 °F - 44.6 °F 95% 30.27 in 10.0 mi Calm Calm - N/A   Clear
3:40 AM 45.5 °F - 44.4 °F 96% 30.27 in 10.0 mi Calm Calm - N/A   Clear
3:58 AM 45.3 °F - 44.2 °F 96% 30.28 in 7.0 mi Calm Calm - N/A   Clear
4:16 AM 46.4 °F - 45.1 °F 95% 30.28 in 10.0 mi Calm Calm - N/A   Clear
4:35 AM 46.9 °F - 45.7 °F 95% 30.28 in 10.0 mi Calm Calm - N/A   Clear
4:36 AM 46.9 °F - 45.7 °F 95% 30.28 in 10.0 mi Calm Calm - N/A   Clear
4:55 AM 46.4 °F - 45.3 °F 96% 30.28 in 10.0 mi Calm Calm - N/A   Clear
4:56 AM 46.6 °F - 45.5 °F 96% 30.28 in 10.0 mi Calm Calm - N/A   Clear
5:19 AM 46.4 °F - 45.3 °F 96% 30.28 in 10.0 mi Calm Calm - N/A   Clear
5:37 AM 43.5 °F - 42.4 °F 96% 30.29 in 2.0 mi Calm Calm - N/A   Clear
5:55 AM 41.5 °F - 40.3 °F 95% 30.29 in 10.0 mi Calm Calm - N/A   Clear
6:15 AM 43.3 °F - 42.4 °F 97% 30.30 in 7.0 mi Calm Calm - N/A   Clear
6:35 AM 43.3 °F - 42.4 °F 97% 30.30 in 1.5 mi Calm Calm - N/A   Mist
6:40 AM 43.0 °F - 41.7 °F 95% 30.31 in 0.8 mi Calm Calm - N/A   Mist
6:58 AM 44.1 °F - 43.0 °F 96% 30.32 in 10.0 mi Calm Calm - N/A   Clear
7:16 AM 42.8 °F - 41.5 °F 95% 30.32 in 10.0 mi Calm Calm - N/A   Clear
7:35 AM 42.1 °F - 41.0 °F 96% 30.32 in 10.0 mi Calm Calm - N/A   Clear
7:36 AM 42.3 °F - 41.2 °F 96% 30.32 in 10.0 mi Calm Calm - N/A   Clear
7:55 AM 46.8 °F - 45.5 °F 95% 30.32 in 10.0 mi Calm Calm - N/A   Clear
8:19 AM 50.4 °F - 49.1 °F 95% 30.33 in 10.0 mi Calm Calm - N/A   Clear
8:37 AM 52.2 °F - 49.8 °F 92% 30.33 in 10.0 mi Calm Calm - N/A   Clear
8:55 AM 53.8 °F - 50.2 °F 88% 30.34 in 10.0 mi SE 3.5 mph - N/A   Clear
8:56 AM 54.0 °F - 50.0 °F 86% 30.34 in 10.0 mi SE 4.6 mph - N/A   Clear
9:15 AM 55.0 °F - 50.0 °F 83% 30.34 in 10.0 mi Calm Calm - N/A   Clear
9:16 AM 55.2 °F - 50.2 °F 83% 30.34 in 10.0 mi SE 3.5 mph - N/A   Clear
9:35 AM 57.9 °F - 50.5 °F 76% 30.34 in 10.0 mi ESE 4.6 mph - N/A   Clear
9:57 AM 61.5 °F - 51.1 °F 69% 30.35 in 10.0 mi SE 4.6 mph - N/A   Clear
10:16 AM 63.7 °F - 50.2 °F 61% 30.35 in 10.0 mi SE 5.8 mph - N/A   Clear
10:35 AM 65.1 °F - 51.1 °F 60% 30.34 in 10.0 mi SE 5.8 mph - N/A   Clear
10:36 AM 64.9 °F - 51.3 °F 61% 30.34 in 10.0 mi SE 5.8 mph - N/A   Clear
10:55 AM 66.9 °F - 50.9 °F 56% 30.34 in 10.0 mi SSE 5.8 mph - N/A   Clear
10:56 AM 67.1 °F - 50.7 °F 56% 30.34 in 10.0 mi SSE 6.9 mph - N/A   Clear
11:19 AM 67.3 °F - 47.3 °F 49% 30.33 in 10.0 mi ESE 8.1 mph - N/A   Clear
11:37 AM 68.4 °F - 46.8 °F 46% 30.34 in 10.0 mi SSE 4.6 mph - N/A   Clear
11:55 AM 68.4 °F - 47.3 °F 47% 30.33 in 10.0 mi SSE 6.9 mph - N/A   Clear
11:56 AM 68.5 °F - 47.8 °F 48% 30.33 in 10.0 mi SE 8.1 mph - N/A   Clear
12:15 PM 68.5 °F - 45.7 °F 44% 30.33 in 10.0 mi South 3.5 mph - N/A   Clear
12:16 PM 68.4 °F - 46.0 °F 45% 30.33 in 10.0 mi SSE 4.6 mph - N/A   Clear
12:35 PM 69.3 °F - 45.7 °F 43% 30.34 in 10.0 mi SSE 5.8 mph - N/A   Clear
12:40 PM 69.4 °F - 46.8 °F 44% 30.33 in 10.0 mi SSE 3.5 mph - N/A   Clear
12:58 PM 69.8 °F - 45.1 °F 41% 30.33 in 10.0 mi ESE 5.8 mph - N/A   Clear
1:16 PM 70.0 °F - 43.7 °F 39% 30.33 in 10.0 mi SE 9.2 mph - N/A   Clear
1:35 PM 68.9 °F - 43.3 °F 40% 30.33 in 10.0 mi SSE 8.1 mph - N/A   Clear
1:36 PM 68.9 °F - 43.7 °F 40% 30.33 in 10.0 mi SSE 6.9 mph - N/A   Clear
1:55 PM 68.5 °F - 45.5 °F 44% 30.33 in 10.0 mi SE 6.9 mph - N/A   Clear
1:56 PM 68.5 °F - 45.5 °F 44% 30.33 in 10.0 mi SSE 8.1 mph - N/A   Clear
2:19 PM 70.2 °F - 46.4 °F 43% 30.34 in 10.0 mi SE 6.9 mph - N/A   Clear
2:37 PM 69.1 °F - 43.5 °F 40% 30.33 in 10.0 mi SE 4.6 mph - N/A   Clear
2:55 PM 70.0 °F - 46.8 °F 43% 30.32 in 10.0 mi East 6.9 mph - N/A   Clear
3:16 PM 69.8 °F - 45.5 °F 42% 30.32 in 10.0 mi East 4.6 mph - N/A   Clear
3:35 PM 68.2 °F - 45.5 °F 44% 30.32 in 10.0 mi East 4.6 mph - N/A   Clear
3:40 PM 68.2 °F - 46.6 °F 46% 30.32 in 10.0 mi East 4.6 mph - N/A   Clear
3:58 PM 69.3 °F - 47.3 °F 45% 30.31 in 10.0 mi East 4.6 mph - N/A   Clear
4:16 PM 68.9 °F - 46.8 °F 45% 30.31 in 10.0 mi Calm Calm - N/A   Clear
4:35 PM 68.2 °F - 48.9 °F 50% 30.30 in 10.0 mi ENE 4.6 mph - N/A   Clear
4:55 PM 68.0 °F - 50.0 °F 52% 30.29 in 10.0 mi Calm Calm - N/A   Clear
4:56 PM 68.0 °F - 50.2 °F 53% 30.29 in 10.0 mi Calm Calm - N/A   Clear
5:19 PM 68.7 °F - 54.5 °F 60% 30.29 in 10.0 mi Calm Calm - N/A   Clear
5:37 PM 66.6 °F - 54.0 °F 64% 30.29 in 10.0 mi Calm Calm - N/A   Clear
5:55 PM 65.7 °F - 55.4 °F 69% 30.29 in 10.0 mi North 3.5 mph - N/A   Clear
6:15 PM 65.5 °F - 55.4 °F 70% 30.28 in 10.0 mi North 4.6 mph - N/A   Clear
6:35 PM 64.9 °F - 56.1 °F 73% 30.27 in 10.0 mi Calm Calm - N/A   Clear
6:40 PM 64.8 °F - 55.9 °F 73% 30.27 in 10.0 mi North 4.6 mph - N/A   Clear
6:58 PM 64.4 °F - 55.6 °F 73% 30.27 in 10.0 mi NNE 4.6 mph - N/A   Clear
7:16 PM 63.9 °F - 54.9 °F 72% 30.27 in 10.0 mi NNE 3.5 mph - N/A   Clear
7:35 PM 63.0 °F - 54.5 °F 74% 30.27 in 10.0 mi Calm Calm - N/A   Clear
7:55 PM 62.6 °F - 54.5 °F 75% 30.27 in 10.0 mi Calm Calm - N/A   Clear
8:19 PM 62.1 °F - 54.1 °F 75% 30.27 in 10.0 mi Calm Calm - N/A   Clear
8:37 PM 61.3 °F - 54.0 °F 77% 30.26 in 10.0 mi NE 3.5 mph - N/A   Clear
8:55 PM 61.0 °F - 53.2 °F 76% 30.27 in 10.0 mi NE 4.6 mph - N/A   Clear
9:15 PM 60.3 °F - 53.2 °F 78% 30.27 in 10.0 mi NE 3.5 mph - N/A   Clear
9:35 PM 59.9 °F - 53.1 °F 78% 30.26 in 10.0 mi NE 3.5 mph - N/A   Clear
9:40 PM 59.9 °F - 53.1 °F 78% 30.26 in 10.0 mi NE 3.5 mph - N/A   Clear
9:58 PM 59.4 °F - 52.9 °F 79% 30.27 in 10.0 mi NE 3.5 mph - N/A   Clear
10:16 PM 59.2 °F - 52.9 °F 80% 30.27 in 10.0 mi Calm Calm - N/A   Clear
10:35 PM 58.5 °F - 52.9 °F 82% 30.27 in 10.0 mi Calm Calm - N/A   Clear
10:55 PM 56.8 °F - 52.9 °F 87% 30.27 in 10.0 mi Calm Calm - N/A   Clear
11:19 PM 56.3 °F - 52.9 °F 88% 30.27 in 10.0 mi Calm Calm - N/A   Clear
11:37 PM 56.5 °F - 53.1 °F 88% 30.26 in 10.0 mi Calm Calm - N/A   Clear
11:55 PM 56.5 °F - 53.2 °F 89% 30.26 in 10.0 mi Calm Calm - N/A   Clear
11:56 PM 56.3 °F - 53.2 °F 89% 30.26 in 10.0 mi Calm Calm - N/A   Clear